This demonstration page uses our WeatherBlox Daily Observations layout. Learn more.

Left ArrowRight Arrow

31.31129, -92.44514

Hourly Observations for October 2, 2015

Temp ( °F °C ) Dew Point ( °F °C ) Humidity (%) Winds ( mph kmh ) Pressure ( in mb ) Visibility ( mi km ) Precip ( " mm )
12:53 am 00:53 Clear 63 17.2 45 7.2 52 52 NNE 6 9 29.98 1015 10 16 0.00 0.00
1:53 am 01:53 Clear 63 17.2 46 7.8 54 54 NNE 10 17 29.97 1015 10 16 0.00 0.00
2:53 am 02:53 Clear 62 16.7 46 7.8 56 56 N 7 11 29.96 1015 10 16 0.00 0.00
3:53 am 03:53 Clear 61 16.1 47 8.3 60 60 N 8 13 29.95 1014 10 16 0.00 0.00
4:53 am 04:53 Clear 59 15 47 8.3 64 64 N 7 11 29.95 1014 10 16 0.00 0.00
5:53 am 05:53 Clear 53 11.7 47 8.3 80 80 NW 7 11 29.97 1015 10 16 0.00 0.00
6:53 am 06:53 Clear 51 10.6 47 8.3 86 86 NNW 6 9 29.97 1015 10 16 0.00 0.00
8:13 am 08:13 undefined 59 15 48 9 68 68 N 9 15 29.97 1015 10 16 0.00 0.00
8:53 am 08:53 Sunny 62 16.7 48 8.9 60 60 N 14 22 29.98 1015 10 16 0.00 0.00
9:53 am 09:53 Sunny 67 19.4 49 9.4 53 53 N 8 13 29.96 1015 10 16 0.00 0.00
10:53 am 10:53 Sunny 70 21.1 48 8.9 46 46 N 15 24 29.95 1014 10 16 0.00 0.00
11:53 am 11:53 Sunny 74 23.3 48 8.9 40 40 N 14 22 29.94 1014 10 16 0.00 0.00
12:53 pm 12:53 Sunny 75 23.9 47 8.3 37 37 NNW 16 26 29.92 1013 10 16 0.00 0.00
1:53 pm 13:53 Sunny 78 25.6 47 8.3 33 33 NNW 15 24 29.89 1012 10 16 0.00 0.00
2:53 pm 14:53 Sunny 80 26.7 48 8.9 33 33 N 12 19 29.85 1011 10 16 0.00 0.00
3:53 pm 15:53 Sunny 81 27.2 48 8.9 32 32 N 12 19 29.84 1010 10 16 0.00 0.00
4:53 pm 16:53 Sunny 80 26.7 46 7.8 30 30 N 15 24 29.84 1010 10 16 0.00 0.00
5:53 pm 17:53 Sunny 78 25.6 46 7.8 32 32 N 12 19 29.84 1010 10 16 0.00 0.00
6:53 pm 18:53 Sunny 74 23.3 46 7.8 37 37 N 9 15 29.85 1011 10 16 0.00 0.00
7:53 pm 19:53 Clear 68 20 47 8.3 47 47 NNW 7 11 29.85 1011 10 16 0.00 0.00
8:53 pm 20:53 Clear 66 18.9 48 8.9 52 52 VRB 6 9 29.88 1012 10 16 0.00 0.00

Powered by AerisWeather